Temp
42 42 42 40 39 40 40 39 40 49 49 50 50 50 51 52 52 53 53 54 55 56 56 56 56 56 55
40 38 39 38 35 36 39 42 38 46 50 49 49 49 49 50 50 50 50 51 52 53 53 54 53 54 54
37 39 37 39 34 33 35 34 40 45 47 48 48 48 48 48 48 48 48 49 50 50 50 50 51 52 52
35 35 38 38 35 32 32 32 33 39 41 43 44 45 47 47 46 46 46 46 47 48 48 48 49 49 50
36 37 37 36 31 30 29 28 30 30 30 31 31 31 34 40 43 44 45 45 45 46 46 47 47 48 48
35 36 31 30 29 28 27 24 25 29 28 29 29 30 30 32 43 44 44 43 44 44 45 45 46 46 47
32 31 29 30 28 27 26 25 26 29 28 26 28 28 30 35 41 43 43 43 43 43 44 44 45 45 46
31 30 31 30 31 31 29 28 28 29 28 21 25 27 28 29 42 43 42 43 43 43 43 43 43 44 45
38 39 39 38 34 29 26 24 25 27 27 26 25 25 27 28 30 41 41 42 44 44 43 43 43 43 36
31 34 34 35 38 31 27 21 22 20 26 22 24 24 21 28 28 28 29 39 40 40 41 41 42 32 30
29 28 29 30 29 29 28 21 16 15 28 22 12 18 16 19 26 27 26 28 28 29 35 37 39 38 29
29 29 28 26 25 27 28 26 25 22 25 19 13 14 9 12 19 25 25 25 24 24 24 31 36 37 38
29 27 24 23 23 22 23 24 22 24 27 16 16 9 11 12 15 17 22 24 23 19 21 21 22 23 22
28 28 26 20 22 22 19 20 18 21 26 23 16 14 11 17 17 18 17 16 19 20 23 24 25 26 25
26 26 28 26 24 21 21 17 16 16 19 23 25 21 20 17 20 22 22 20 20 20 19 20 24 25 26
25 24 23 22 21 19 16 15 15 15 15 17 17 18 19 23 27 23 20 19 20 20 20 21 24 23 27
23 22 20 20 26 18 16 16 13 14 14 12 7 8 8 15 22 33 22 14 16 19 21 21 22 25 27
MSLP
1021.77 1022.42 1022.86 1023.05 1023.13 1023.19 1023.05 1022.66 1022.59 1022.27 1022.33 1022.13 1021.99 1021.73 1021.49 1021.22 1020.99 1020.69 1020.53 1020.39 1020.29 1020.29 1020.38 1020.57 1020.87 1021.17 1021.59
1021.82 1022.27 1022.64 1022.94 1023.30 1023.37 1023.33 1023.01 1023.05 1022.86 1022.92 1022.27 1022.18 1021.96 1021.72 1021.67 1021.64 1021.41 1021.30 1021.16 1021.12 1021.06 1021.12 1021.21 1021.51 1021.62 1021.71
1021.56 1021.80 1022.42 1022.73 1023.17 1023.41 1023.18 1023.15 1023.11 1022.69 1022.74 1022.83 1022.46 1022.25 1021.98 1021.97 1022.09 1022.03 1022.01 1021.90 1021.84 1021.81 1021.84 1021.86 1021.94 1022.05 1022.10
1021.62 1022.01 1022.19 1022.78 1023.13 1023.50 1023.81 1023.66 1023.76 1023.29 1023.14 1023.12 1022.94 1022.70 1022.32 1022.33 1022.48 1022.50 1022.45 1022.48 1022.41 1022.35 1022.31 1022.34 1022.38 1022.41 1022.48
1021.87 1022.04 1022.33 1022.67 1023.16 1023.43 1023.79 1023.92 1024.35 1024.12 1023.83 1023.73 1023.59 1023.43 1023.00 1022.82 1022.77 1022.79 1022.73 1022.78 1022.80 1022.74 1022.65 1022.59 1022.57 1022.58 1022.55
1022.09 1022.33 1022.58 1023.30 1023.55 1023.71 1023.81 1023.84 1024.45 1024.23 1024.28 1024.07 1023.90 1023.75 1023.57 1023.27 1023.01 1022.95 1022.93 1022.91 1022.97 1022.96 1022.87 1022.81 1022.79 1022.79 1022.79
1022.37 1022.48 1022.65 1023.11 1023.20 1023.67 1024.00 1023.67 1024.24 1024.25 1024.44 1024.30 1024.22 1023.95 1023.74 1023.39 1023.09 1022.98 1023.01 1022.98 1023.03 1023.08 1023.02 1022.93 1022.87 1022.83 1022.83
1022.53 1022.90 1022.79 1022.94 1023.10 1023.17 1023.58 1023.64 1024.03 1024.35 1024.55 1024.53 1024.45 1024.21 1023.90 1023.59 1023.01 1023.06 1023.13 1023.10 1023.06 1023.08 1023.09 1023.00 1022.94 1022.82 1022.72
1022.62 1022.89 1022.68 1022.75 1023.10 1023.44 1023.65 1023.80 1024.29 1024.52 1024.56 1024.61 1024.77 1024.60 1024.22 1023.97 1023.65 1023.29 1023.28 1023.11 1022.97 1022.98 1023.02 1022.96 1022.91 1022.88 1023.04
1023.10 1023.15 1023.17 1022.99 1022.80 1023.18 1023.44 1024.19 1024.69 1024.81 1024.54 1024.73 1024.99 1025.01 1024.70 1024.15 1023.97 1023.88 1023.76 1023.40 1023.34 1023.26 1023.23 1023.17 1023.03 1023.18 1023.24
1023.18 1023.39 1023.48 1023.34 1023.28 1023.28 1023.50 1024.01 1024.51 1024.58 1024.32 1024.62 1025.57 1025.50 1025.43 1025.06 1024.33 1024.03 1024.04 1023.91 1023.79 1023.62 1023.43 1023.35 1023.12 1022.95 1023.14
1023.22 1023.42 1023.54 1023.49 1023.33 1023.46 1023.63 1023.94 1024.10 1024.29 1024.31 1024.68 1025.32 1025.63 1025.74 1025.89 1025.15 1024.24 1024.00 1023.83 1023.85 1023.82 1023.73 1023.42 1023.24 1022.99 1022.69
1023.02 1023.24 1023.34 1023.37 1023.45 1023.75 1023.85 1024.02 1024.15 1024.05 1024.09 1024.52 1024.90 1025.29 1025.50 1025.57 1025.27 1024.85 1024.57 1023.80 1023.73 1023.93 1023.77 1023.62 1023.34 1023.05 1022.82
1022.70 1022.92 1023.30 1023.52 1023.61 1023.65 1023.82 1023.98 1024.25 1024.06 1023.87 1024.04 1024.56 1025.01 1025.18 1024.91 1024.79 1024.61 1024.32 1024.62 1023.68 1023.65 1023.43 1023.05 1022.73 1022.56 1022.45
1022.62 1022.84 1023.04 1023.26 1023.46 1023.56 1023.75 1024.07 1024.28 1024.42 1024.48 1024.14 1024.00 1024.12 1024.15 1024.11 1024.10 1023.56 1023.51 1023.61 1023.41 1023.38 1023.32 1022.83 1022.18 1021.95 1021.67
1022.21 1022.51 1022.83 1023.09 1023.24 1023.44 1023.63 1024.06 1024.31 1024.43 1024.54 1024.29 1024.08 1024.00 1023.61 1022.92 1022.58 1022.62 1022.78 1022.89 1022.76 1022.73 1022.73 1022.68 1021.61 1021.22 1020.86
1021.68 1022.00 1022.34 1022.70 1022.76 1023.15 1023.41 1023.65 1023.89 1024.12 1024.36 1024.24 1024.63 1024.38 1024.27 1023.47 1022.02 1021.63 1022.18 1022.27 1022.21 1022.19 1022.03 1021.89 1021.32 1020.39 1020.27
Wind_Speed
2 2 2 2 3 4 3 2 3 4 2 5 8 9 10 11 12 12 13 13 14 13 12 11 9 7 3
2 2 2 1 0 1 2 3 3 6 4 6 6 8 9 9 10 11 10 11 10 11 11 10 9 8 7
3 2 2 2 2 2 2 3 2 7 7 7 7 7 8 8 8 9 9 8 8 7 7 5 5 5 4
2 2 2 2 3 2 2 3 3 4 5 7 7 8 8 6 6 7 7 7 7 6 5 4 4 3 3
2 2 2 2 3 2 2 1 1 3 3 3 3 4 4 6 4 5 6 6 6 5 4 4 4 4 4
1 2 2 1 1 2 2 3 1 2 3 3 3 3 3 2 4 3 4 4 4 4 4 4 4 5 6
3 3 3 4 4 3 1 3 1 2 1 2 3 2 2 4 7 1 5 3 3 4 5 4 4 4 5
2 3 2 4 3 3 3 3 1 1 1 0 2 2 3 3 3 3 3 3 2 3 3 4 5 5 6
5 5 6 6 5 3 1 3 1 1 2 1 2 2 2 2 3 6 4 5 4 4 3 4 6 6 5
2 1 3 1 5 2 3 3 2 2 2 2 1 2 3 1 2 3 3 7 8 7 7 8 8 2 2
2 1 1 2 2 3 3 3 3 2 2 3 1 2 2 3 2 1 2 3 3 4 5 10 8 6 2
2 3 2 2 2 2 3 3 2 4 2 4 2 3 2 3 3 3 2 3 0 2 2 4 10 13 11
3 2 2 2 3 2 1 0 1 2 3 3 4 3 3 3 3 2 3 3 1 1 2 2 2 2 3
2 2 2 1 1 2 2 1 1 3 1 5 5 5 3 4 3 4 3 2 2 1 4 5 3 4 4
2 3 3 3 2 2 2 1 2 1 2 2 3 5 5 4 3 6 5 4 4 4 1 5 5 5 5
3 3 3 3 3 2 2 3 3 2 2 2 2 3 3 5 15 6 3 3 3 4 2 3 9 4 5
4 4 4 3 5 3 2 2 2 2 3 2 1 3 1 3 3 14 5 3 2 2 4 5 8 9 6
Wind_Direction
112 138 99 66 0 351 346 18 352 347 324 16 22 25 27 32 40 45 49 50 53 55 59 63 67 65 94
128 128 131 85 214 338 342 19 -0 336 5 26 32 37 42 43 46 43 43 49 53 62 60 60 60 50 41
142 128 131 162 88 3 39 18 341 25 15 4 18 37 44 48 51 55 54 52 55 59 56 53 35 24 5
98 124 142 110 99 104 17 35 348 2 -0 8 4 17 24 45 53 46 45 38 37 41 50 51 51 45 358
115 148 158 146 164 134 139 41 307 18 335 350 351 352 7 21 48 29 12 4 1 357 353 350 349 337 342
176 164 116 106 106 123 160 84 279 42 10 324 16 353 343 339 313 29 4 358 6 7 1 341 325 313 299
167 193 153 186 139 149 185 123 193 329 13 308 -0 329 328 327 317 359 12 52 50 33 21 360 330 310 290
116 170 140 151 154 152 164 129 103 42 27 61 346 294 330 326 341 63 94 59 31 21 7 5 353 334 298
134 163 156 161 159 111 97 86 54 226 5 97 340 308 324 324 344 26 5 339 348 8 22 360 352 351 349
19 72 76 181 147 159 140 122 144 7 266 97 349 15 343 325 330 355 353 31 14 13 352 333 323 352 338
184 188 176 151 130 118 138 133 139 220 242 101 95 18 104 303 305 325 23 344 339 331 354 335 319 337 283
194 210 205 203 208 165 163 160 171 176 196 123 157 142 120 326 274 326 301 303 216 301 303 319 325 314 304
208 217 213 215 118 105 67 134 233 240 187 167 161 160 153 197 244 265 319 312 314 230 267 255 260 276 305
196 200 127 104 172 152 147 143 92 307 252 195 191 158 205 223 191 250 207 263 289 297 300 292 277 253 249
180 185 197 170 208 152 170 129 152 179 286 290 219 203 219 193 259 228 240 233 235 259 210 288 274 254 253
191 192 192 190 197 176 147 156 180 218 233 259 321 358 338 261 222 254 240 240 238 236 215 267 288 247 248
194 198 189 195 214 192 187 165 211 201 219 210 143 125 137 259 280 216 228 227 273 253 223 226 270 281 279